Portada
METAR-TAF:

METAR-TAF

Aeropuertos :

Aeropuerto Internacional del Caribe Santiago Mariño

Isla de Margarita, Venezuela

latitud: 10-55N, longitud: 063-59W, altitud: 23 m

Observación

El informe se hizo hace 9 horas y 36 minutos, a las 18:00 UTC
Temperatura 34°C
Humedad 53%
Presión 1012 hPa
Visibilidad 10 km o más
Escasas nubes a una altura de 1000 ft

METAR: SVMG 241800Z /////KT 9999 FEW010 34/23 Q1012 NOSIG

Hora: 23:36 (03:36 UTC)

Pronóstico

El informe se hizo hace 5 horas y 36 minutos, a las 22:00 UTC
Pronóstico válido del 25 a las 00 UTC al 26 a las 00 UTC
Viento 15 kt del noreste
Visibilidad 10 km o más
Escasas nubes a una altura de 1000 ft
Evolucionando progresivamente
del 25 a las 01 UTC al 25 a las 05 UTC
Nubes dispersas a una altura de 1000 ft

TAF: SVMG 242200Z 2500/2600 05015KT 9999 FEW010 TX35/19Z TN26/09Z BECMG 2501/2505 SCT010

Observaciones y pronósticos meteorológicos de más de 4000 aeropuertos (mensajes METAR y TAF).

Los puntos amarillos y rojos representan las estaciones disponibles.

Ponga el ratón en el punto deseado para ver el nombre de la estación.

Haga clic para ver las observaciones y los pronósticos meteorológicos.

Para cambiar el mapa : haga clic en los botones verdes con una cruz de color negro para hacer un zoom, en el botón verde con un guión para alejar o en las flechas verdes para mapas adyacentes.


METAR-TAF: